Change the Weather History Date:

Wednesday, October 23, 2013

  Actual Average Record
Temperature  
Mean Temperature 20 °F -  
Max Temperature 27 °F 16 °F 31 °F (2012)
Min Temperature 13 °F 10 °F -6 °F (1999)
Degree Days  
Heating Degree Days 45    
Moisture  
Dew Point 22 °F    
Average Humidity 94    
Maximum Humidity 100    
Minimum Humidity 85    
Precipitation  
Precipitation 0.00 in - - ()
Sea Level Pressure  
Sea Level Pressure 30.21 in    
Wind  
Wind Speed 0 mph (North)    
Max Wind Speed 6 mph    
Max Gust Speed -    
Visibility 5 miles    
Events Snow    
Averages and records for this station are not official NWS values.
T = Trace of Precipitation, MM = Missing Value Source: NWS Daily Summary

Daily Weather History Graph

Daily Weather History Graph

Search for Another Location

Airport or City:

Trip Planner

Search our weather history database for the weather conditions in past years. The results will help you decide how hot, cold, wet, or windy it might be!

Date:

Astronomy

Oct. 23, 2013 Rise Set
Actual Time 10:40 AM AKDT 6:30 PM AKDT
Civil Twilight 9:34 AM AKDT 7:36 PM AKDT
Nautical Twilight 8:23 AM AKDT 8:47 PM AKDT
Astronomical Twilight 7:13 AM AKDT 9:56 PM AKDT
Moon 8:02 PM AKDT (10/23) 5:19 PM AKDT (10/23)
Length of Visible Light 10h 02m
Length of Day
7h 50m
Waning Gibbous, 78% of the Moon is Illuminated
Oct 23
Waning Gibbous
Oct 26
Last Quarter
Nov 3
New
Nov 9
First Quarter
Nov 17
Full

Hourly Weather History & Observations

Time (AKDT) Temp. Windchill Dew Point Humidity Pressure Visibility Wind Dir Wind Speed Gust Speed Precip Events Conditions
12:56 AM 16.2 °F - 14.0 °F 91% 30.19 in 10.0 mi Calm Calm - N/A   Clear
1:56 AM 13.1 °F - 11.1 °F 92% 30.20 in 10.0 mi Calm Calm - N/A   Clear
2:44 AM 15.8 °F - 12.2 °F 86% 30.19 in 10.0 mi Calm Calm - N/A   Mostly Cloudy
2:56 AM 15.1 °F - 13.1 °F 92% 30.20 in 10.0 mi Calm Calm - N/A   Overcast
3:56 AM 17.6 °F - 14.0 °F 86% 30.20 in 10.0 mi Calm Calm - N/A   Overcast
4:18 AM 17.6 °F - 15.8 °F 93% 30.20 in 10.0 mi Calm Calm - N/A   Overcast
4:43 AM 17.6 °F - 15.8 °F 93% 30.20 in 10.0 mi Calm Calm - N/A   Overcast
4:56 AM 18.1 °F - 16.2 °F 92% 30.21 in 10.0 mi Calm Calm - 0.00 in   Overcast
5:56 AM 21.0 °F - 19.0 °F 92% 30.21 in 3.0 mi Calm Calm - 0.00 in   Overcast
6:01 AM 21.2 °F - 19.4 °F 93% 30.20 in 1.8 mi Calm Calm - 0.00 in   Overcast
6:09 AM 21.2 °F - 19.4 °F 93% 30.19 in 3.0 mi Calm Calm - 0.00 in   Overcast
6:56 AM 23.0 °F - 21.2 °F 93% 30.20 in 9.0 mi Calm Calm - N/A   Overcast
7:40 AM 26.6 °F - 24.8 °F 93% 30.20 in 8.0 mi Calm Calm - 0.00 in Snow Light Snow
7:56 AM 26.1 °F - 25.2 °F 96% 30.22 in 10.0 mi Calm Calm - 0.00 in   Overcast
8:21 AM 26.6 °F - 26.6 °F 100% 30.21 in 1.8 mi Calm Calm - 0.00 in   Overcast
8:25 AM 26.6 °F - 26.6 °F 100% 30.21 in 1.0 mi Calm Calm - 0.00 in   Overcast
8:34 AM 26.6 °F - 26.6 °F 100% 30.21 in 0.8 mi Calm Calm - 0.00 in   Overcast
8:48 AM 26.6 °F - 26.6 °F 100% 30.21 in 1.0 mi Calm Calm - 0.00 in   Overcast
8:56 AM 27.1 °F - 26.1 °F 96% 30.22 in 1.0 mi Calm Calm - 0.00 in   Overcast
9:05 AM 26.6 °F - 26.6 °F 100% 30.21 in 1.2 mi Calm Calm - N/A   Overcast
9:19 AM 26.6 °F - 26.6 °F 100% 30.21 in 2.0 mi Calm Calm - N/A   Overcast
9:31 AM 26.6 °F - 26.6 °F 100% 30.21 in 3.0 mi Calm Calm - N/A   Overcast
9:56 AM 26.6 °F - 26.6 °F 100% 30.21 in 10.0 mi Calm Calm - N/A   Overcast
10:17 AM 26.6 °F - 24.8 °F 93% 30.21 in 4.0 mi Calm Calm - 0.00 in   Overcast
10:21 AM 26.6 °F - 24.8 °F 93% 30.21 in 1.8 mi Calm Calm - 0.00 in Snow Light Snow
10:28 AM 24.8 °F - 24.8 °F 100% 30.21 in 1.2 mi Calm Calm - 0.00 in Snow Light Snow
10:37 AM 26.6 °F - 24.8 °F 93% 30.22 in 1.0 mi Calm Calm - 0.00 in Snow Light Snow
10:43 AM 26.6 °F - 24.8 °F 93% 30.22 in 1.5 mi Calm Calm - 0.00 in Snow Light Snow
10:49 AM 26.6 °F - 24.8 °F 93% 30.22 in 1.0 mi Calm Calm - 0.00 in Snow Light Snow
10:56 AM 26.1 °F - 25.2 °F 96% 30.23 in 1.0 mi Calm Calm - 0.00 in Snow Light Snow
11:17 AM 24.8 °F - 24.8 °F 100% 30.22 in 1.5 mi Calm Calm - 0.00 in Snow Light Snow
11:56 AM 25.2 °F - 24.1 °F 96% 30.24 in 6.0 mi Calm Calm - 0.00 in   Overcast
12:32 PM 24.8 °F - 24.8 °F 100% 30.22 in 10.0 mi Calm Calm - N/A   Overcast
12:56 PM 24.8 °F 19.1 °F 24.8 °F 100% 30.22 in 10.0 mi NNE 4.6 mph - N/A   Overcast
1:13 PM 24.8 °F 17.9 °F 24.8 °F 100% 30.22 in 6.0 mi North 5.8 mph - N/A   Overcast
1:19 PM 26.6 °F - 24.8 °F 93% 30.22 in 2.5 mi Calm Calm - 0.00 in   Mostly Cloudy
1:23 PM 26.6 °F - 24.8 °F 93% 30.22 in 3.0 mi Calm Calm - 0.00 in   Overcast
1:39 PM 26.6 °F - 24.8 °F 93% 30.22 in 3.0 mi Calm Calm - 0.00 in   Overcast
1:44 PM 26.6 °F - 24.8 °F 93% 30.22 in 2.0 mi Calm Calm - 0.00 in   Overcast
1:47 PM 26.6 °F - 24.8 °F 93% 30.22 in 1.8 mi Calm Calm - 0.00 in   Overcast
1:56 PM 26.1 °F - 25.2 °F 96% 30.23 in 2.5 mi Calm Calm - 0.00 in   Overcast
2:01 PM 26.6 °F - 24.8 °F 93% 30.22 in 3.0 mi Calm Calm - 0.00 in   Overcast
2:15 PM 24.8 °F - 24.8 °F 100% 30.22 in 8.0 mi Calm Calm - 0.00 in   Overcast
2:48 PM 24.8 °F - 23.0 °F 93% 30.21 in 2.5 mi Calm Calm - 0.00 in   Overcast
2:56 PM 25.2 °F - 23.0 °F 91% 30.22 in 2.5 mi Calm Calm - 0.00 in   Overcast
3:04 PM 24.8 °F - 23.0 °F 93% 30.21 in 6.0 mi Calm Calm - N/A   Overcast
3:56 PM 23.0 °F - 19.0 °F 85% 30.22 in 10.0 mi Calm Calm - N/A   Partly Cloudy
4:23 PM 23.0 °F - 19.4 °F 86% 30.21 in 10.0 mi Calm Calm - N/A   Mostly Cloudy
4:48 PM 21.2 °F - 21.2 °F 100% 30.21 in 10.0 mi Calm Calm - N/A   Mostly Cloudy
4:56 PM 21.0 °F - 20.1 °F 96% 30.22 in 10.0 mi Calm Calm - N/A   Overcast
5:40 PM 23.0 °F - 21.2 °F 93% 30.20 in 4.0 mi Calm Calm - N/A   Overcast
5:56 PM 23.0 °F - 21.0 °F 92% 30.22 in 10.0 mi Calm Calm - N/A   Overcast
6:06 PM 21.2 °F - 21.2 °F 100% 30.20 in 6.0 mi Calm Calm - N/A   Overcast
6:17 PM 23.0 °F - 21.2 °F 93% 30.20 in 2.0 mi Calm Calm - N/A   Overcast
6:23 PM 23.0 °F - 21.2 °F 93% 30.20 in 3.0 mi Calm Calm - N/A   Overcast
6:48 PM 21.2 °F - 19.4 °F 93% 30.20 in 2.5 mi Calm Calm - 0.00 in   Mostly Cloudy
6:56 PM 23.0 °F - 21.2 °F 93% 30.19 in 2.0 mi Calm Calm - N/A   Mostly Cloudy
7:02 PM 23.0 °F - 21.2 °F 93% 30.19 in 3.0 mi Calm Calm - N/A   Overcast
7:15 PM 23.0 °F - 21.2 °F 93% 30.20 in 5.0 mi Calm Calm - N/A   Overcast
7:26 PM 23.0 °F - 21.2 °F 93% 30.20 in 7.0 mi Calm Calm - N/A   Overcast
7:38 PM 23.0 °F - 21.2 °F 93% 30.19 in 4.0 mi Calm Calm - N/A   Overcast
7:48 PM 23.0 °F - 21.2 °F 93% 30.20 in 5.0 mi Calm Calm - N/A   Overcast
7:56 PM 23.0 °F - 21.0 °F 92% 30.21 in 4.0 mi Calm Calm - N/A   Overcast
8:28 PM 23.0 °F - 21.2 °F 93% 30.20 in 4.0 mi Calm Calm - N/A   Overcast
8:43 PM 23.0 °F - 21.2 °F 93% 30.19 in 7.0 mi Calm Calm - N/A   Overcast
8:56 PM 23.0 °F - 21.0 °F 92% 30.21 in 6.0 mi Calm Calm - N/A   Overcast
9:56 PM 22.1 °F - 21.0 °F 96% 30.20 in 10.0 mi Calm Calm - 0.00 in   Overcast
10:56 PM 22.1 °F - 21.0 °F 96% 30.20 in 10.0 mi Calm Calm - N/A   Overcast
11:56 PM 22.1 °F - 20.1 °F 92% 30.20 in 10.0 mi Calm Calm - 0.00 in   Overcast